Weather History for KDFI - October, 2014

Change the Weather History Date:

Wednesday, October 29, 2014

  Actual Average Record
Temperature  
Mean Temperature 46 °F -  
Max Temperature 50 °F 58 °F 78 °F (1946)
Min Temperature 42 °F 36 °F 19 °F (1965)
Degree Days  
Heating Degree Days 18    
Moisture  
Dew Point 37 °F    
Average Humidity 71    
Maximum Humidity 85    
Minimum Humidity 59    
Precipitation  
Precipitation 0.00 in - - ()
Sea Level Pressure  
Sea Level Pressure 30.05 in    
Wind  
Wind Speed 6 mph (WSW)    
Max Wind Speed 12 mph    
Max Gust Speed 20 mph    
Visibility 10 miles    
Events Rain    
Averages and records for this station are not official NWS values.
T = Trace of Precipitation, MM = Missing Value Source: NWS Daily Summary

Daily Weather History Graph

Daily Weather History Graph

Search for Another Location

Airport or City:

Trip Planner

Search our weather history database for the weather conditions in past years. The results will help you decide how hot, cold, wet, or windy it might be!

Date:

Astronomy

Oct. 29, 2014 Rise Set
Actual Time 8:05 AM EDT 6:36 PM EDT
Civil Twilight 7:37 AM EDT 7:05 PM EDT
Nautical Twilight 7:04 AM EDT 7:37 PM EDT
Astronomical Twilight 6:32 AM EDT 8:09 PM EDT
Moon 1:24 PM EDT (10/29) 11:45 PM EDT (10/29)
Length of Visible Light 11h 28m
Length of Day
10h 31m
Waxing Crescent, 34% of the Moon is Illuminated
Oct 29
Waxing Crescent
Oct 30
First Quarter
Nov 6
Full
Nov 14
Last Quarter
Nov 22
New

Hourly Weather History & Observations

Time (EDT) Temp. Windchill Dew Point Humidity Pressure Visibility Wind Dir Wind Speed Gust Speed Precip Events Conditions
12:53 AM 50.0 °F - 37.0 °F 61% 29.97 in 10.0 mi SW 5.8 mph - N/A   Clear
1:53 AM 48.0 °F - 37.9 °F 68% 29.97 in 10.0 mi WSW 4.6 mph - N/A   Clear
2:53 AM 48.0 °F - 37.0 °F 66% 29.98 in 10.0 mi SW 5.8 mph - N/A   Clear
3:53 AM 46.9 °F - 37.0 °F 68% 29.98 in 10.0 mi SW 5.8 mph - N/A   Clear
4:53 AM 44.1 °F 40.1 °F 36.0 °F 73% 29.98 in 10.0 mi SW 6.9 mph - N/A   Clear
5:53 AM 44.1 °F 40.1 °F 36.0 °F 73% 29.99 in 10.0 mi SW 6.9 mph - N/A   Clear
6:53 AM 43.0 °F 39.5 °F 36.0 °F 76% 29.99 in 10.0 mi SW 5.8 mph - N/A   Clear
7:53 AM 43.0 °F 39.5 °F 36.0 °F 76% 30.00 in 10.0 mi SW 5.8 mph - N/A   Clear
8:53 AM 43.0 °F 40.3 °F 36.0 °F 76% 30.01 in 10.0 mi WSW 4.6 mph - N/A   Clear
9:53 AM 45.0 °F 41.8 °F 37.0 °F 74% 30.02 in 10.0 mi Variable 5.8 mph - N/A   Clear
10:53 AM 46.9 °F - 37.0 °F 68% 30.02 in 10.0 mi WSW 9.2 mph - N/A   Overcast
11:53 AM 48.9 °F - 36.0 °F 61% 30.03 in 10.0 mi West 9.2 mph 16.1 mph N/A   Overcast
12:53 PM 48.9 °F - 35.1 °F 59% 30.04 in 10.0 mi West 11.5 mph 19.6 mph N/A   Overcast
1:53 PM 48.9 °F - 36.0 °F 61% 30.04 in 10.0 mi WNW 9.2 mph 17.3 mph N/A   Overcast
2:53 PM 48.9 °F - 36.0 °F 61% 30.04 in 10.0 mi West 11.5 mph 19.6 mph N/A   Overcast
3:53 PM 48.0 °F - 36.0 °F 63% 30.06 in 10.0 mi WNW 9.2 mph - N/A   Overcast
4:05 PM 48.0 °F - 36.0 °F 63% 30.05 in 10.0 mi Variable 6.9 mph - N/A   Overcast
4:53 PM 46.9 °F - 35.1 °F 63% 30.07 in 10.0 mi West 9.2 mph - N/A   Overcast
5:53 PM 46.9 °F - 36.0 °F 66% 30.08 in 10.0 mi Variable 6.9 mph - N/A   Overcast
6:35 PM 46.0 °F 41.0 °F 37.9 °F 73% 30.09 in 10.0 mi NW 10.4 mph 16.1 mph 0.00 in Rain Light Rain
6:53 PM 44.1 °F 39.0 °F 37.9 °F 79% 30.11 in 8.0 mi WNW 9.2 mph 18.4 mph 0.00 in Rain Light Rain
7:19 PM 44.1 °F 41.5 °F 37.9 °F 79% 30.10 in 10.0 mi Variable 4.6 mph - 0.00 in Rain Light Rain
7:53 PM 44.1 °F 41.5 °F 37.9 °F 79% 30.12 in 10.0 mi Variable 4.6 mph - 0.00 in   Overcast
8:53 PM 44.1 °F 41.5 °F 37.9 °F 79% 30.13 in 10.0 mi Variable 4.6 mph - N/A   Overcast
9:53 PM 44.1 °F 42.5 °F 37.9 °F 79% 30.13 in 10.0 mi WSW 3.5 mph - N/A   Overcast
10:53 PM 44.1 °F 42.5 °F 37.9 °F 79% 30.13 in 10.0 mi Variable 3.5 mph - N/A   Overcast
11:53 PM 42.1 °F - 37.9 °F 85% 30.13 in 10.0 mi Calm Calm - N/A   Overcast